Pagrindinis puslapis
METAR-TAF:

METAR-TAF

Oro uostai :

Crystal River, Florida, Jungtinės Amerikos Valstijos

platuma: 28-52-02N, ilguma: 082-34-17W, Aukštis: 3 m

Dabartinis oras

Ataskaita buvo paskelbta 38 minutes, ne 08:15 UTC
Vėjas 9 kt iš Šiaurės Vakarų
Temperatūra 11°C
Drėgmė 66%
Slėgis 1019 hPa
Matomumas: 16.1 km
Giedras dangus

METAR: KCGC 270815Z AUTO 32009KT 10SM CLR 11/05 A3009 RMK AO2

Laikas: 03:53 (08:53 UTC)


TAF: trūkstamas

Orai ataskaitas ir orų prognozės (METAR, TAF).

turimą stotys yra geltonos ir raudonos taškus žemėlapyje.

Perkelti pele per norėdami pamatyti stoties vardą.

Tada spustelėkite, norėdami matyti oro stebėjimo ir prognozės.

Norėdami pakeisti žemėlapį: spustelėkite ant žalios mygtukų su juodo kryžiaus žemyn,; žalią mygtuką su brūkšneliu, jei norite nutolinti; arba žalių rodyklių gretimoms žemėlapius.


METAR-TAF: